Terug naar catalogus

FENGYUN 1C DEB

ActiefSSO
NORAD 31929·DEBRIS·🇨🇳 China

Gelanceerd May 10, 1999 vanaf Taiyuan Satellite Launch Center

Loading…

Volgende Passages (komende 24 uur)

TLE

VerouderendSource: Space-Track

Epoch: Sep 9, 2026, 15:41 UTC

1 31929U 99025CME 26252.65347863  .00000590  00000-0  21446-3 0  9992
2 31929  98.8263  32.5721 0072281 337.4941  22.3078 14.35631386745326

Volg FENGYUN 1C DEB in realtime met AllMySat

Download on the App Store